Time,TemperatureF,DewpointF,PressureIn,WindDirection,WindDirectionDegrees,WindSpeedMPH,WindSpeedGustMPH,Humidity,HourlyPrecipIn,Conditions,Clouds,dailyrainin,SolarRadiationWatts/m^2,SoftwareType,DateUTC
2013-04-22 00:01:00,46.0,45.0,30.37,SSE,164,1.0,4.0,93,-99.99,,,0.00,0.000000,,2013-04-22 07:01:00,
2013-04-22 00:11:00,46.0,45.0,30.37,SSE,164,1.0,4.0,93,-99.99,,,0.00,0.000000,,2013-04-22 07:11:00,
2013-04-22 00:42:00,47.0,43.0,30.37,South,191,3.0,10.0,87,-99.99,,,0.00,0.000000,,2013-04-22 07:42:00,
2013-04-22 00:52:00,47.0,43.0,30.37,South,191,3.0,10.0,87,-99.99,,,0.00,0.000000,,2013-04-22 07:52:00,
2013-04-22 01:01:00,47.0,43.0,30.37,South,191,3.0,10.0,87,-99.99,,,0.00,0.000000,,2013-04-22 08:01:00,
2013-04-22 01:11:00,47.0,43.0,30.37,South,191,3.0,10.0,87,-99.99,,,0.00,0.000000,,2013-04-22 08:11:00,
2013-04-22 01:42:00,45.0,43.0,30.39,East,89,2.0,4.0,92,-99.99,,,0.00,0.000000,,2013-04-22 08:42:00,
2013-04-22 01:52:00,45.0,43.0,30.39,East,89,2.0,4.0,92,-99.99,,,0.00,0.000000,,2013-04-22 08:52:00,
2013-04-22 02:01:00,45.0,43.0,30.39,East,89,2.0,4.0,92,-99.99,,,0.00,0.000000,,2013-04-22 09:01:00,
2013-04-22 02:11:00,45.0,43.0,30.39,East,89,2.0,4.0,92,-99.99,,,0.00,0.000000,,2013-04-22 09:11:00,
2013-04-22 02:42:00,44.0,42.0,30.41,East,100,2.0,9.0,92,-99.99,,,0.00,0.000000,,2013-04-22 09:42:00,
2013-04-22 02:52:00,44.0,42.0,30.41,East,100,2.0,9.0,92,-99.99,,,0.00,0.000000,,2013-04-22 09:52:00,
2013-04-22 03:03:00,44.0,42.0,30.41,East,100,2.0,9.0,92,-99.99,,,0.00,0.000000,,2013-04-22 10:03:00,
2013-04-22 03:12:00,44.0,42.0,30.41,East,100,2.0,9.0,92,-99.99,,,0.00,0.000000,,2013-04-22 10:12:00,
2013-04-22 03:32:00,44.0,42.0,30.42,East,81,2.0,5.0,90,-99.99,,,0.00,0.000000,,2013-04-22 10:32:00,
2013-04-22 03:42:00,44.0,42.0,30.42,East,81,2.0,5.0,90,-99.99,,,0.00,0.000000,,2013-04-22 10:42:00,
2013-04-22 03:52:00,44.0,42.0,30.42,East,81,2.0,5.0,90,-99.99,,,0.00,0.000000,,2013-04-22 10:52:00,
2013-04-22 04:02:00,44.0,42.0,30.42,East,81,2.0,5.0,90,-99.99,,,0.00,0.000000,,2013-04-22 11:02:00,
2013-04-22 04:12:00,44.0,42.0,30.42,East,81,2.0,5.0,90,-99.99,,,0.00,0.000000,,2013-04-22 11:12:00,
2013-04-22 04:42:00,44.0,42.0,30.43,East,89,2.0,5.0,91,-99.99,,,0.00,0.000000,,2013-04-22 11:42:00,
2013-04-22 04:52:00,44.0,42.0,30.43,East,89,2.0,5.0,91,-99.99,,,0.00,0.000000,,2013-04-22 11:52:00,
2013-04-22 05:01:00,44.0,42.0,30.43,East,89,2.0,5.0,91,-99.99,,,0.00,0.000000,,2013-04-22 12:01:00,
2013-04-22 05:12:00,44.0,42.0,30.43,East,89,2.0,5.0,91,-99.99,,,0.00,0.000000,,2013-04-22 12:12:00,
2013-04-22 06:41:00,41.0,39.0,30.47,ENE,57,3.0,6.0,92,-99.99,,,0.00,3.250000,,2013-04-22 13:41:00,
2013-04-22 06:53:00,41.0,39.0,30.47,ENE,57,3.0,6.0,92,-99.99,,,0.00,3.250000,,2013-04-22 13:53:00,
2013-04-22 07:02:00,41.0,39.0,30.47,ENE,57,3.0,6.0,92,-99.99,,,0.00,3.250000,,2013-04-22 14:02:00,
2013-04-22 07:11:00,41.0,39.0,30.47,ENE,57,3.0,6.0,92,-99.99,,,0.00,3.250000,,2013-04-22 14:11:00,
2013-04-22 07:42:00,41.0,39.0,30.49,ENE,69,3.0,7.0,90,-99.99,,,0.00,41.259998,,2013-04-22 14:42:00,
2013-04-22 07:52:00,41.0,39.0,30.49,ENE,69,3.0,7.0,90,-99.99,,,0.00,41.259998,,2013-04-22 14:52:00,
2013-04-22 08:01:00,41.0,39.0,30.49,ENE,69,3.0,7.0,90,-99.99,,,0.00,41.259998,,2013-04-22 15:01:00,
2013-04-22 08:11:00,41.0,39.0,30.49,ENE,69,3.0,7.0,90,-99.99,,,0.00,41.259998,,2013-04-22 15:11:00,
2013-04-22 08:42:00,46.0,40.0,30.50,East,96,2.0,8.0,81,-99.99,,,0.00,278.000000,,2013-04-22 15:42:00,
2013-04-22 08:53:00,46.0,40.0,30.50,East,96,2.0,8.0,81,-99.99,,,0.00,278.000000,,2013-04-22 15:53:00,
2013-04-22 09:02:00,46.0,40.0,30.50,East,96,2.0,8.0,81,-99.99,,,0.00,278.000000,,2013-04-22 16:02:00,
2013-04-22 09:12:00,46.0,40.0,30.50,East,96,2.0,8.0,81,-99.99,,,0.00,278.000000,,2013-04-22 16:12:00,
2013-04-22 09:42:00,49.0,40.0,30.49,East,88,4.0,7.0,72,-99.99,,,0.00,462.320007,,2013-04-22 16:42:00,
2013-04-22 09:52:00,49.0,40.0,30.49,East,88,4.0,7.0,72,-99.99,,,0.00,462.320007,,2013-04-22 16:52:00,
2013-04-22 10:02:00,49.0,40.0,30.49,East,88,4.0,7.0,72,-99.99,,,0.00,462.320007,,2013-04-22 17:02:00,
2013-04-22 10:12:00,49.0,40.0,30.49,East,88,4.0,7.0,72,-99.99,,,0.00,462.320007,,2013-04-22 17:12:00,
2013-04-22 10:31:00,55.0,35.0,30.49,ENE,76,3.0,12.0,47,-99.99,,,0.00,628.049988,,2013-04-22 17:31:00,
2013-04-22 10:42:00,55.0,35.0,30.49,ENE,76,3.0,12.0,47,-99.99,,,0.00,628.049988,,2013-04-22 17:42:00,
2013-04-22 10:52:00,55.0,35.0,30.49,ENE,76,3.0,12.0,47,-99.99,,,0.00,628.049988,,2013-04-22 17:52:00,
2013-04-22 11:01:00,55.0,35.0,30.49,ENE,76,3.0,12.0,47,-99.99,,,0.00,628.049988,,2013-04-22 18:01:00,
2013-04-22 11:12:00,55.0,35.0,30.49,ENE,76,3.0,12.0,47,-99.99,,,0.00,628.049988,,2013-04-22 18:12:00,
2013-04-22 11:42:00,58.0,31.0,30.50,ENE,78,4.0,14.0,35,-99.99,,,0.00,753.690002,,2013-04-22 18:42:00,
2013-04-22 11:52:00,58.0,31.0,30.50,ENE,78,4.0,14.0,35,-99.99,,,0.00,753.690002,,2013-04-22 18:52:00,
2013-04-22 12:01:00,58.0,31.0,30.50,ENE,78,4.0,14.0,35,-99.99,,,0.00,753.690002,,2013-04-22 19:01:00,
2013-04-22 12:11:00,58.0,31.0,30.50,ENE,78,4.0,14.0,35,-99.99,,,0.00,753.690002,,2013-04-22 19:11:00,
2013-04-22 12:42:00,61.0,27.0,30.49,East,82,6.0,15.0,27,-99.99,,,0.00,846.080017,,2013-04-22 19:42:00,
2013-04-22 12:52:00,61.0,27.0,30.49,East,82,6.0,15.0,27,-99.99,,,0.00,846.080017,,2013-04-22 19:52:00,
2013-04-22 13:02:00,61.0,27.0,30.49,East,82,6.0,15.0,27,-99.99,,,0.00,846.080017,,2013-04-22 20:02:00,
2013-04-22 13:11:00,61.0,27.0,30.49,East,82,6.0,15.0,27,-99.99,,,0.00,846.080017,,2013-04-22 20:11:00,
2013-04-22 13:42:00,62.0,26.0,30.47,East,81,6.0,19.0,24,-99.99,,,0.00,876.299988,,2013-04-22 20:42:00,
2013-04-22 13:52:00,62.0,26.0,30.47,East,81,6.0,19.0,24,-99.99,,,0.00,876.299988,,2013-04-22 20:52:00,
2013-04-22 14:01:00,62.0,26.0,30.47,East,81,6.0,19.0,24,-99.99,,,0.00,876.299988,,2013-04-22 21:01:00,
2013-04-22 14:11:00,62.0,26.0,30.47,East,81,6.0,19.0,24,-99.99,,,0.00,876.299988,,2013-04-22 21:11:00,
2013-04-22 14:42:00,64.0,26.0,30.46,East,85,6.0,18.0,24,-99.99,,,0.00,851.890015,,2013-04-22 21:42:00,
2013-04-22 14:53:00,64.0,26.0,30.46,East,85,6.0,18.0,24,-99.99,,,0.00,851.890015,,2013-04-22 21:53:00,
2013-04-22 15:02:00,64.0,26.0,30.46,East,85,6.0,18.0,24,-99.99,,,0.00,851.890015,,2013-04-22 22:02:00,
2013-04-22 15:12:00,64.0,26.0,30.46,East,85,6.0,18.0,24,-99.99,,,0.00,851.890015,,2013-04-22 22:12:00,
2013-04-22 15:42:00,64.0,27.0,30.44,East,83,6.0,14.0,24,-99.99,,,0.00,769.729980,,2013-04-22 22:42:00,
2013-04-22 15:52:00,64.0,27.0,30.44,East,83,6.0,14.0,24,-99.99,,,0.00,769.729980,,2013-04-22 22:52:00,
2013-04-22 16:02:00,64.0,27.0,30.44,East,83,6.0,14.0,24,-99.99,,,0.00,769.729980,,2013-04-22 23:02:00,
2013-04-22 16:11:00,64.0,27.0,30.44,East,83,6.0,14.0,24,-99.99,,,0.00,769.729980,,2013-04-22 23:11:00,
2013-04-22 16:42:00,65.0,27.0,30.43,East,80,5.0,11.0,24,-99.99,,,0.00,645.599976,,2013-04-22 23:42:00,
2013-04-22 16:52:00,65.0,27.0,30.43,East,80,5.0,11.0,24,-99.99,,,0.00,645.599976,,2013-04-22 23:52:00,
2013-04-22 17:01:00,65.0,27.0,30.43,East,80,5.0,11.0,24,-99.99,,,0.00,645.599976,,2013-04-23 00:01:00,
2013-04-22 17:12:00,65.0,27.0,30.43,East,80,5.0,11.0,24,-99.99,,,0.00,645.599976,,2013-04-23 00:12:00,
2013-04-22 18:42:00,64.0,28.0,30.41,East,87,3.0,8.0,25,-99.99,,,0.00,299.619995,,2013-04-23 01:42:00,
2013-04-22 18:52:00,64.0,28.0,30.41,East,87,3.0,8.0,25,-99.99,,,0.00,299.619995,,2013-04-23 01:52:00,
2013-04-22 19:01:00,64.0,28.0,30.41,East,87,3.0,8.0,25,-99.99,,,0.00,299.619995,,2013-04-23 02:01:00,
2013-04-22 19:12:00,64.0,28.0,30.41,East,87,3.0,8.0,25,-99.99,,,0.00,299.619995,,2013-04-23 02:12:00,
2013-04-22 19:42:00,58.0,34.0,30.42,SE,142,4.0,9.0,40,-99.99,,,0.00,118.779999,,2013-04-23 02:42:00,
2013-04-22 19:52:00,58.0,34.0,30.42,SE,142,4.0,9.0,40,-99.99,,,0.00,118.779999,,2013-04-23 02:52:00,
2013-04-22 20:01:00,58.0,34.0,30.42,SE,142,4.0,9.0,40,-99.99,,,0.00,118.779999,,2013-04-23 03:01:00,
2013-04-22 20:11:00,58.0,34.0,30.42,SE,142,4.0,9.0,40,-99.99,,,0.00,118.779999,,2013-04-23 03:11:00,
2013-04-22 20:43:00,54.0,36.0,30.43,SE,138,5.0,16.0,50,-99.99,,,0.00,2.560000,,2013-04-23 03:43:00,
2013-04-22 20:53:00,54.0,36.0,30.43,SE,138,5.0,16.0,50,-99.99,,,0.00,2.560000,,2013-04-23 03:53:00,
2013-04-22 21:03:00,54.0,36.0,30.43,SE,138,5.0,16.0,50,-99.99,,,0.00,2.560000,,2013-04-23 04:03:00,
2013-04-22 21:12:00,54.0,36.0,30.43,SE,138,5.0,16.0,50,-99.99,,,0.00,2.560000,,2013-04-23 04:12:00,
2013-04-22 21:43:00,50.0,38.0,30.46,NE,48,2.0,3.0,63,-99.99,,,0.00,0.000000,,2013-04-23 04:43:00,
2013-04-22 21:53:00,50.0,38.0,30.46,NE,48,2.0,3.0,63,-99.99,,,0.00,0.000000,,2013-04-23 04:53:00,
2013-04-22 22:02:00,50.0,38.0,-100.00,NE,48,2.0,3.0,63,-99.99,,,0.00,0.000000,,2013-04-23 05:02:00,
2013-04-22 22:12:00,50.0,38.0,-100.00,NE,48,2.0,3.0,63,-99.99,,,0.00,0.000000,,2013-04-23 05:12:00,
2013-04-22 22:42:00,47.0,38.0,30.46,East,81,3.0,4.0,72,-99.99,,,0.00,0.120000,,2013-04-23 05:42:00,
2013-04-22 22:52:00,47.0,38.0,30.46,East,81,3.0,4.0,72,-99.99,,,0.00,0.120000,,2013-04-23 05:52:00,
2013-04-22 23:01:00,47.0,38.0,30.46,East,81,3.0,4.0,72,-99.99,,,0.00,0.120000,,2013-04-23 06:01:00,
2013-04-22 23:12:00,47.0,38.0,30.46,East,81,3.0,4.0,72,-99.99,,,0.00,0.120000,,2013-04-23 06:12:00,
2013-04-22 23:41:00,45.0,37.0,30.46,ENE,68,3.0,5.0,72,-99.99,,,0.00,0.230000,,2013-04-23 06:41:00,
2013-04-22 23:52:00,45.0,37.0,30.46,ENE,68,3.0,5.0,72,-99.99,,,0.00,0.230000,,2013-04-23 06:52:00,